Regional Weather Roundup
Issued by NWS

Home | Current Version | Previous Version | Graphics & Text | Print | Product List | Glossary On
Versions: 1 2 3 4 5 6 7 8 9 10 11 12 13 14 15 16 17 18 19 20 21 22 23 24 25 26 27 28 29 30 31 32 33 34 35 36 37 38 39 40 41 42 43 44 45 46 47 48 49 50
000
ASUS43 KIND 200209
RWRIN

WEATHER ROUNDUP FOR INDIANA
NATIONAL WEATHER SERVICE INDIANAPOLIS IN
1000 PM EDT TUE SEP 19 2017

NOTE: "FAIR" INDICATES FEW OR NO CLOUDS BELOW 12,000 FEET WITH NO
SIGNIFICANT WEATHER AND/OR OBSTRUCTIONS TO VISIBILITY.

* - STATION DOES NOT REPORT WEATHER SUCH AS PRECIPITATION OR FOG.

+ - STATION NOT QUALITY CONTROLLED BY THE NATIONAL WEATHER SERVICE.
    USE DATA WITH CAUTION...ESPECIALLY DEWPOINT AND RELATIVE
    HUMIDITY OBSERVATIONS.

INZ001>003-010>013-019-020-200300-
NORTHWEST INDIANA

CITY           SKY/WX    TMP DP  RH WIND       PRES   REMARKS
GARY /AIRPORT/ PTCLDY    68  64  88 VRB3      29.93S
KNOX *+        CLEAR     63  61  94 CALM      29.93R
LA PORTE +     CLEAR     62  62  97 CALM      29.94S
MICHIGAN CITY+ PTCLDY    63  63 100 CALM      29.94R FOG
MONTICELLO +   CLEAR     65  64  96 CALM      29.92S
RENSSELAER +   CLEAR     68  63  83 CALM      29.93R
VALPARAISO     CLEAR     65  63  93 CALM      29.93S

$$

LMZ046-743>745-200300-
SOUTHERN LAKE MICHIGAN

STATION/POSITION TIME  TEMP    WIND        PRES    WAVE
                       AIR SEA DIR/SP/G            HT
                 (UTC) (F)     (DEG/KT/KT) (MB)    (FT)
BURNS HARBOR     0200   68      70/  6/  8 1013.9
MICHIGAN CITY    0140   67      40/  3/  3   N/A
5NW MICH CITY    0200   68 69   60/  2/  4   N/A     1

$$

INZ004-005-014>016-021>024-200300-
NORTH CENTRAL INDIANA

CITY           SKY/WX    TMP DP  RH WIND       PRES   REMARKS
GOSHEN         CLOUDY    67  64  90 CALM      29.93S
LOGANSPORT +   CLEAR     63  63 100 CALM      29.94R
PERU/GRISSOM   CLEAR     67  67 100 CALM      29.93R
ROCHESTER +    PTCLDY    68  66  94 CALM      29.94R
SOUTH BEND     CLEAR     66  66 100 NE3       29.93S
WARSAW +       MOCLDY    64  64 100 CALM      29.93S

$$

INZ006>009-017-018-025>027-200300-
NORTHEAST INDIANA

CITY           SKY/WX    TMP DP  RH WIND       PRES   REMARKS
AUBURN +       CLOUDY    68  64  88 E3        29.95S FOG
FORT WAYNE     PTCLDY    67  65  93 CALM      29.94R
HUNTINGTON +   MOCLDY    66  65  96 CALM      29.93S
KENDALLVILLE + MOCLDY    65  65 100 SE5       29.95R

$$

INZ028-029-035-036-043>045-051>053-200300-
WEST CENTRAL INDIANA

CITY           SKY/WX    TMP DP  RH WIND       PRES   REMARKS
CRAWFORDSVL +  CLEAR     63  63 100 CALM      29.93R
GREENCASTLE +  PTCLDY    68  64  88 CALM      29.93S
LAFAYETTE      CLEAR     65  65 100 CALM      29.91S
TERRE HAUTE    CLEAR     69  66  90 CALM      29.91S

$$

INZ030>032-037>040-046>048-054>057-064-065-200300-
CENTRAL INDIANA

CITY           SKY/WX    TMP DP  RH WIND       PRES   REMARKS
CP ATTERBURY + CLEAR     68  64  88 SE3       29.94S
COLUMBUS       CLEAR     70  66  88 S6        29.94S
FISHERS *+     CLOUDY    68  68 100 E3        29.94R
FRANKFORT +    MOCLDY    67  65  93 SE3       29.95R
GREENWOOD *+   CLOUDY    76  70  82 S5        29.94S
INDIANAPOLIS   PTCLDY    73  66  78 CALM      29.92S
-EAGLE CREEK   CLEAR     71  67  87 W3        29.92S
KOKOMO +       CLEAR     65  64  97 E5        29.94S
MT COMFORT *+    N/A    N/A N/A N/A MISG        N/A
SHELBYVILLE    PTCLDY    70  66  87 SE7       29.94R
ZIONSVILLE +   CLEAR     65  64  99 CALM      29.94S

$$

INZ033-034-041-042-049-050-058-059-200300-
EAST CENTRAL INDIANA

CITY           SKY/WX    TMP DP  RH WIND       PRES   REMARKS
MUNCIE         MOCLDY    70  65  84 SE5       29.95R
RICHMOND +     MOCLDY    64  64 100 S5        29.98R

$$

INZ060-061-067>069-081>083-085>088-200300-
SOUTHWEST INDIANA

CITY           SKY/WX    TMP DP  RH WIND       PRES   REMARKS
EVANSVILLE     CLEAR     72  68  87 CALM      29.92S
HUNTINGBURG +    N/A    N/A N/A N/A MISG        N/A
WASHINGTON +   CLEAR     72  68  88 S5        29.92R

$$

INZ062-063-066-070>080-084-089>092-200300-
SOUTH CENTRAL AND SOUTHEAST INDIANA

CITY           SKY/WX    TMP DP  RH WIND       PRES   REMARKS
BEDFORD +      CLEAR     72  66  83 S5        29.93S
BLOOMINGTON    CLEAR     70  65  84 S5        29.93S
MADISON *+       N/A     64  63  94 CALM      29.98S VSB 1
NORTH VERNON + CLEAR     66  64  94 CALM      29.96R
SEYMOUR +      CLEAR     70  64  83 SE3       29.95R

$$




USA.gov is the U.S. government's official web portal to all federal, state and local government web resources and services.